Location: Ohmer (historical)
(38.0096°N, 122.0227°W)
Time: 19:28:43
(UTC+00:00)

COSMO-SKYMED 1 - Pass Details

Date: 14 February 2026
Orbit: 577 x 579 km, 97.9° (Epoch: 10 March)

Event Time Altitude Azimuth Distance (km) Brightness Sun altitude
Rises 14:21:13 0° 189° (S) 2,781 5.9 -8.1°
Reaches altitude 10° 14:23:32 10° 199° (SSW) 1,887 5.0 -7.6°
Maximum altitude 14:27:12 31° 263° (W) 1,016 3.2 -6.9°
Drops below altitude 10° 14:30:53 10° 326° (NNW) 1,899 4.6 -6.2°
Sets 14:33:14 0° 337° (NNW) 2,802 5.6 -5.8°
